This is the latest recevied weather packets stored in our database for station/object LW9ERO-3. If no packets are shown the sender has not sent any weather packets the latest 10 day(s).
| Time | Temp. | Humidity | Pressure | Rain* | Wind** | Luminosity | Snow |
|---|---|---|---|---|---|---|---|
| 1787508544 | 13.33° C | 43% | 1026 hPa | 0 mm | - | - | - |
| 1787508004 | 13.33° C | 44% | 1026 hPa | 0 mm | - | - | - |
| 1787507644 | 13.33° C | 44% | 1026.1 hPa | 0 mm | - | - | - |
| 1787507104 | 13.33° C | 43% | 1026.2 hPa | 0 mm | - | - | - |
| 1787506564 | 13.33° C | 44% | 1026.2 hPa | 0 mm | - | - | - |
| 1787506024 | 12.78° C | 44% | 1026.1 hPa | 0 mm | - | - | - |
| 1787505484 | 12.78° C | 44% | 1026.2 hPa | 0 mm | - | - | - |
| 1787504943 | 12.78° C | 45% | 1026.3 hPa | 0 mm | - | - | - |
| 1787504403 | 12.22° C | 48% | 1026.4 hPa | 0 mm | - | - | - |
| 1787504043 | 12.22° C | 47% | 1026.5 hPa | 0 mm | - | - | - |
| 1787503504 | 12.22° C | 45% | 1026.5 hPa | 0 mm | - | - | - |
| 1787502964 | 12.78° C | 46% | 1026.6 hPa | 0 mm | - | - | - |
| 1787502423 | 12.78° C | 47% | 1026.7 hPa | 0 mm | - | - | - |
| 1787501884 | 12.22° C | 47% | 1026.7 hPa | 0 mm | - | - | - |
| 1787501343 | 12.22° C | 47% | 1026.8 hPa | 0 mm | - | - | - |
| 1787500804 | 12.22° C | 47% | 1026.8 hPa | 0 mm | - | - | - |
| 1787500444 | 12.22° C | 48% | 1027.2 hPa | 0 mm | - | - | - |
| 1787499904 | 12.22° C | 48% | 1027.2 hPa | 0 mm | - | - | - |
| 1787499364 | 12.22° C | 48% | 1027.3 hPa | 0 mm | - | - | - |
| 1787498824 | 11.67° C | 50% | 1027.4 hPa | 0 mm | - | - | - |
| 1787498284 | 11.67° C | 50% | 1027.5 hPa | 0 mm | - | - | - |
| 1787497744 | 11.67° C | 50% | 1027.6 hPa | 0 mm | - | - | - |
| 1787497204 | 11.67° C | 51% | 1027.8 hPa | 0 mm | - | - | - |
| 1787496844 | 11.67° C | 53% | 1027.7 hPa | 0 mm | - | - | - |
| 1787496304 | 11.11° C | 54% | 1027.7 hPa | 0 mm | - | - | - |
* Rain latest hour (hover to see other rain measurements)
** Current wind speed in m/s (hover to see current wind gust speed)